Location: *
(43.6428°N, 11.5461°E)
Time: 15:23:45
(UTC+00:00)

Cosmos 1076 Rocket - Pass Details

Date: 21 October 2019
Orbit: 589 x 613 km, 82.5° (Epoch: 11 November)

Event Time Altitude Azimuth Distance (km) Brightness Sun altitude
Rises 17:17:45 0° 1° (N) 2,885 6.9 -10.9°
Reaches altitude 10° 17:20:13 10° 12° (NNE) 1,973 6.0 -11.3°
Maximum altitude 17:24:04 30° 74° (ENE) 1,102 4.3 -12.0°
Drops below altitude 10° 17:27:52 10° 136° (SE) 1,948 5.7 -12.7°
Sets 17:30:17 0° 147° (SSE) 2,842 6.7 -13.1°
